Regional Weather Roundup
Issued by NWS

Home | Current Version | Previous Version | Text Only | Print | Product List | Glossary Off
Versions: 1 2 3 4 5 6 7 8 9 10 11 12 13 14 15 16 17 18 19 20 21 22 23 24 25 26 27 28 29 30 31 32 33 34 35 36 37 38 39 40 41 42 43 44 45 46 47 48 49 50

000
ASUS43 KOAX 261002
RWRNE

WEATHER ROUNDUP FOR NEBRASKA
NATIONAL WEATHER SERVICE OMAHA NE
500 AM CDT THU APR 26 2018

NOTES: SATELLITE DATA IS BEING USED TO AUGMENT CLOUD COVER ABOVE
       12000 FEET.
       "FAIR" INDICATES FEW OR NO CLOUDS BELOW 12,000 FEET WITH NO
       SIGNIFICANT WEATHER AND/OR OBSTRUCTIONS TO VISIBILITY.


NEZ001>004-019>022-054>056-261100-
NEBRASKA PANHANDLE

CITY           SKY/WX    TMP DP  RH WIND       PRES   REMARKS
SCOTTSBLUFF    MOCLDY    49  32  52 N18       30.08R
ALLIANCE       PTCLDY    47  32  56 N16       30.04R
CHADRON        MOCLDY    50  31  48 N20G32    30.09R
GORDON         FAIR      48  33  56 N20G29    30.03R
KIMBALL        PTCLDY    46  29  52 NW20G26   30.08R
SIDNEY         CLOUDY    49  27  42 N21G28    30.03R
$$

NEZ057>060-069>072-079>082-261100-
SOUTHWEST NEBRASKA

CITY           SKY/WX    TMP DP  RH WIND       PRES   REMARKS
NORTH PLATTE   CLOUDY    44  33  65 W7        29.92F
IMPERIAL       CLOUDY    40  34  79 S5        29.91F
LEXINGTON      CLOUDY    37  33  83 SE3       29.96S
MCCOOK         MOCLDY    39  34  82 S7        29.94R WCI  34
OGALLALA       CLOUDY    41  37  84 NW3       29.92R
$$

NEZ005>010-023>029-035>040-094-261100-
NORTH CENTRAL NEBRASKA

CITY           SKY/WX    TMP DP  RH WIND       PRES   REMARKS
VALENTINE      MOCLDY    51  33  50 W13G20    29.94R
AINSWORTH      MOCLDY    42  33  72 W3        29.90S
BROKEN BOW     MOCLDY    37  33  85 CALM      29.92F
O`NEILL        CLOUDY    44  37  74 S9        29.89F
ORD            CLOUDY    37  33  85 CALM      29.92F
THEDFORD       CLOUDY    41  34  74 CALM      29.92S
$$

NEZ041-046>049-061>064-073>077-083>087-261100-
SOUTH CENTRAL NEBRASKA

CITY           SKY/WX    TMP DP  RH WIND       PRES   REMARKS
GRAND ISLAND   CLOUDY    42  37  82 SW12      29.98R
AURORA         CLOUDY    37  35  92 SW9       29.98S WCI  31
HASTINGS       CLOUDY    38  37  97 S7        29.98S WCI  33
HEBRON         CLOUDY    36  35  96 CALM      30.00R
HOLDREGE       CLOUDY    38  35  90 S3        29.97R
KEARNEY        CLOUDY    40  36  86 W3        29.99R
YORK             N/A     36  36 100 W9        29.98S WCI  29
$$

NEZ011>018-030>034-042>045-261100-
NORTHEAST NEBRASKA

CITY           SKY/WX    TMP DP  RH WIND       PRES   REMARKS
NORFOLK        CLOUDY    42  35  76 SW7       29.94R
ALBION         PTCLDY    41  36  83 SE3       29.96S
BLAIR          CLOUDY    42  34  72 SW3       29.96S
COLUMBUS       CLOUDY    42  35  76 SW8       29.97F
FREMONT        CLOUDY    39  34  82 W3        29.97R
TEKAMAH        CLOUDY    39  32  76 SW6       29.95S WCI  35
WAYNE          CLOUDY    40  38  93 S8        29.94S WCI  34
$$

NEZ050>053-065>068-078-088>093-261100-
SOUTHEAST NEBRASKA

CITY           SKY/WX    TMP DP  RH WIND       PRES   REMARKS
LINCOLN        CLOUDY    35  32  88 S3        29.99S
OMAHA EPPLEY   CLOUDY    40  34  79 S6        29.97S
BEATRICE       CLOUDY    33  31  90 CALM      29.99S
FALLS CITY     PTCLDY    37  33  85 CALM      29.98S
NEBRASKA CITY  PTCLDY    42  38  87 W9        29.98R
PLATTSMOUTH    CLOUDY    40  34  79 W7        29.97S
$$

NEZ044-045-051>053-067-261100-
OMAHA AREA

CITY           SKY/WX    TMP DP  RH WIND       PRES   REMARKS
OMAHA EPPLEY   CLOUDY    40  34  79 S6        29.97S
BLAIR          CLOUDY    42  34  72 SW3       29.96S
FREMONT        CLOUDY    39  34  82 W3        29.97R
MILLARD        CLOUDY    41  35  79 CALM      29.98R
PLATTSMOUTH    CLOUDY    40  34  79 W7        29.97S
WAHOO          FAIR      43  34  71 SW6       29.97S
$$




USA.gov is the U.S. government's official web portal to all federal, state and local government web resources and services.